{"data":{"norad_id":54759,"intl_designator":"2022-175B","name":"STARLINK-5215","alt_names":[],"object_type":"PAYLOAD","status":"ACTIVE","operator":null,"country":"US","launch_date":"2022-12-17","launch_site_code":"AFETR","launch_vehicle":null,"mission":null,"orbit_class":"UNKNOWN","rcs_meters":null,"size_class":null,"mass_kg":null,"dimensions":null,"purposes":["comms"],"wikipedia_slug":null,"has_3d_model":false,"image_url":null,"decayed_at":null,"tle_current":{"epoch":"2026-05-25T01:10:36.865056Z","epoch_age_seconds":70525,"freshness":"FRESH","line1":"1 54759U 22175B   26145.04903779 -.00000258  00000+0  18988-5 0  9998","line2":"2 54759  53.2136  56.5580 0001613  89.5163 270.6014 15.08837208191513","mean_motion":15.08837208,"eccentricity":0.0001613,"inclination_deg":53.2136,"raan_deg":56.558,"arg_perigee_deg":89.5163,"mean_anomaly_deg":270.6014,"bstar":1.8988e-6,"rev_number":19151,"period_min":95.43773127843,"perigee_km":538.63606752103,"apogee_km":540.86777848759,"semimajor_km":6917.8889230043,"source":"CELESTRAK","updated_at":"2026-05-25T13:38:17.688025Z"}}}